| time (UTC) | temp F | wind direction | speed knots | gust knots | rain 1hr in | rain 24hr in | rain mn in | humidity % | barometer mb |
| 20260508150143 | 82 | 338 | 4.3 | 11.3 | 0.00 | 0.00 | 0.00 | 26 | 1000.7 |
| 20260508143412 | 76 | 293 | 1.7 | 8.7 | 0.00 | 0.00 | 0.00 | 42 | 1000.9 |
| 20260508133042 | 83 | 315 | 6.1 | 11.3 | 0.00 | 0.00 | 0.00 | 37 | 1000.8 |
| 20260508130042 | 86 | 315 | 5.2 | 8.7 | 0.00 | 0.00 | 0.00 | 21 | 1000.8 |
| 20260508123043 | 86 | 315 | 5.2 | 12.2 | 0.00 | 0.00 | 0.00 | 22 | 1001.0 |
| 20260508120042 | 88 | 315 | 4.3 | 10.4 | 0.00 | 0.00 | 0.00 | 27 | 1001.1 |
| 20260508113042 | 86 | 315 | 4.3 | 9.6 | 0.00 | 0.00 | 0.00 | 22 | 1001.2 |
| 20260508110041 | 86 | 293 | 2.6 | 7.0 | 0.00 | 0.00 | 0.00 | 30 | 1001.3 |
| 20260508103042 | 86 | 23 | 2.6 | 7.8 | 0.00 | 0.00 | 0.00 | 28 | 1001.4 |
| 20260508100046 | 85 | 90 | 3.5 | 7.0 | 0.00 | 0.00 | 0.00 | 27 | 1001.5 |
| 20260508093043 | 84 | 315 | 2.6 | 7.8 | 0.00 | 0.00 | 0.00 | 28 | 1001.6 |
| 20260508090042 | 85 | 293 | 1.7 | 5.2 | 0.00 | 0.00 | 0.00 | 33 | 1001.7 |
| 20260508083413 | 83 | 270 | 1.7 | 5.2 | 0.00 | 0.00 | 0.00 | 41 | 1001.9 |
| 20260508080041 | 81 | 270 | 1.7 | 5.2 | 0.00 | 0.00 | 0.00 | 37 | 1002.0 |
| 20260508073042 | 79 | 293 | 2.6 | 5.2 | 0.00 | 0.00 | 0.00 | 45 | 1002.0 |
| 20260508070041 | 78 | 90 | 1.7 | 5.2 | 0.00 | 0.00 | 0.00 | 41 | 1001.9 |
| 20260508063044 | 76 | 45 | 2.6 | 7.0 | 0.00 | 0.00 | 0.00 | 44 | 1001.9 |
| 20260508053041 | 71 | 293 | 1.7 | 5.2 | 0.00 | 0.01 | 0.00 | 58 | 1002.0 |
| 20260508050041 | 69 | 315 | 2.6 | 5.2 | 0.00 | 0.01 | 0.00 | 60 | 1002.0 |
| 20260508043041 | 67 | 315 | 1.7 | 4.3 | 0.00 | 0.01 | 0.00 | 65 | 1001.9 |
| 20260508040433 | 65 | 315 | 0.9 | 3.5 | 0.00 | 0.01 | 0.00 | 69 | 1001.8 |
| 20260508033041 | 63 | 270 | 0.9 | 3.5 | 0.00 | 0.01 | 0.00 | 73 | 1001.6 |
| 20260508030041 | 60 | 158 | 1.7 | 5.2 | 0.00 | 0.01 | 0.00 | 79 | 1001.4 |
| 20260508023041 | 57 | 23 | 0.9 | 5.2 | 0.00 | 0.01 | 0.00 | 81 | 1001.2 |
| 20260508020041 | 57 | 225 | 1.7 | 4.3 | 0.00 | 0.01 | 0.00 | 76 | 1000.9 |
| 20260508013041 | 58 | 270 | 2.6 | 6.1 | 0.00 | 0.01 | 0.00 | 74 | 1001.0 |
| 20260508010041 | 60 | 225 | 2.6 | 10.4 | 0.00 | 0.01 | 0.00 | 72 | 1001.1 |
| 20260508003041 | 61 | 248 | 7.8 | 13.0 | 0.00 | 0.01 | 0.00 | 72 | 1001.0 |
| 20260508000041 | 59 | 0 | 1.7 | 5.2 | 0.00 | 0.01 | 0.00 | 81 | 1001.5 |
| 20260507233040 | 59 | 248 | 2.6 | 7.0 | 0.00 | 0.01 | 0.00 | 78 | 1001.6 |
| 20260507230040 | 59 | 90 | 1.7 | 6.1 | 0.00 | 0.01 | 0.00 | 80 | 1002.2 |
| 20260507223040 | 55 | 0.0 | 1.7 | 0.00 | 0.01 | 0.00 | 84 | 1001.4 | |
| 20260507220041 | 56 | 0.0 | 3.5 | 0.00 | 0.01 | 0.00 | 78 | 1001.3 | |
| 20260507213041 | 57 | 0.0 | 0.9 | 0.00 | 0.01 | 0.00 | 77 | 1001.3 | |
| 20260507210041 | 59 | 0.0 | 1.7 | 0.00 | 0.01 | 0.01 | 76 | 1001.4 | |
| 20260507203101 | 61 | 315 | 1.7 | 4.3 | 0.00 | 0.01 | 0.01 | 73 | 1001.5 |
| 20260507200041 | 59 | 293 | 1.7 | 5.2 | 0.00 | 0.01 | 0.01 | 76 | 1001.6 |
| 20260507193045 | 61 | 315 | 1.7 | 4.3 | 0.00 | 0.01 | 0.01 | 72 | 1001.3 |
| 20260507190040 | 61 | 315 | 0.9 | 4.3 | 0.00 | 0.01 | 0.01 | 73 | 1001.1 |
| 20260507183041 | 62 | 338 | 1.7 | 5.2 | 0.00 | 0.01 | 0.01 | 73 | 1001.1 |
| 20260507180412 | 62 | 270 | 0.9 | 4.3 | 0.00 | 0.01 | 0.01 | 74 | 1001.2 |
| 20260507173040 | 62 | 270 | 0.9 | 3.5 | 0.00 | 0.01 | 0.01 | 74 | 1001.1 |
| 20260507170040 | 63 | 270 | 1.7 | 5.2 | 0.00 | 0.01 | 0.01 | 74 | 1000.9 |
| 20260507163041 | 64 | 270 | 2.6 | 7.8 | 0.00 | 0.01 | 0.01 | 73 | 1000.6 |
| 20260507160041 | 67 | 248 | 5.2 | 11.3 | 0.00 | 0.01 | 0.01 | 67 | 1000.4 |
| 20260507153101 | 66 | 270 | 2.6 | 8.7 | 0.00 | 0.01 | 0.01 | 70 | 1000.5 |